Stündliche Wetter Abzanovo

Heute, 23 Juni, Mittwoch

Zeit Temperatur Niederschläge Wind Luftdruck Luftfeuchtigkeit
00:00 +22°C° 0 mm 1 m/S 753 mmHg 90%
01:00 +21°C° 0 mm 2 m/S 753 mmHg 90%
02:00 +21°C° 0 mm 1 m/S 753 mmHg 91%
03:00 +21°C° 0 mm 1 m/S 753 mmHg 92%
04:00 +20°C° 0 mm 1 m/S 753 mmHg 93%
05:00 +22°C° 0 mm 1 m/S 753 mmHg 90%
06:00 +23°C° 0 mm 1 m/S 753 mmHg 88%
07:00 +24°C° 0 mm 1 m/S 753 mmHg 86%
08:00 +26°C° 0 mm 2 m/S 753 mmHg 78%
09:00 +27°C° 0 mm 3 m/S 753 mmHg 70%
10:00 +29°C° 0 mm 3 m/S 752 mmHg 62%
11:00 +29°C° 0.7 mm 3 m/S 752 mmHg 65%
12:00 +29°C° 0.7 mm 4 m/S 752 mmHg 67%
13:00 +29°C° 0.7 mm 4 m/S 752 mmHg 69%
14:00 +30°C° 0.3 mm 4 m/S 752 mmHg 65%
15:00 +30°C° 0.3 mm 4 m/S 752 mmHg 61%
16:00 +32°C° 0.3 mm 4 m/S 752 mmHg 57%
17:00 +29°C° 0.2 mm 4 m/S 752 mmHg 64%
18:00 +28°C° 0.2 mm 3 m/S 752 mmHg 71%
19:00 +26°C° 0.2 mm 3 m/S 752 mmHg 79%
20:00 +24°C° 0.7 mm 3 m/S 752 mmHg 84%
21:00 +21°C° 0.7 mm 2 m/S 753 mmHg 90%
22:00 +19°C° 0.7 mm 2 m/S 753 mmHg 96%
23:00 +18°C° 0.3 mm 2 m/S 753 mmHg 95%

Morgen, 24 Juni, Donnerstag

Zeit Temperatur Niederschläge Wind Luftdruck Luftfeuchtigkeit
00:00 +18°C° 0.3 mm 2 m/S 753 mmHg 94%
01:00 +17°C° 0.3 mm 2 m/S 753 mmHg 93%
02:00 +17°C° 0 mm 2 m/S 753 mmHg 93%
03:00 +16°C° 0 mm 2 m/S 753 mmHg 93%
04:00 +15°C° 0 mm 1 m/S 754 mmHg 92%
05:00 +16°C° 0 mm 1 m/S 754 mmHg 90%
06:00 +19°C° 0 mm 1 m/S 754 mmHg 87%
07:00 +20°C° 0 mm 1 m/S 754 mmHg 85%
08:00 +22°C° 0 mm 1 m/S 754 mmHg 75%
09:00 +24°C° 0 mm 1 m/S 754 mmHg 65%
10:00 +26°C° 0 mm 1 m/S 754 mmHg 55%
11:00 +27°C° 0 mm 1 m/S 754 mmHg 50%
12:00 +27°C° 0 mm 1 m/S 754 mmHg 45%
13:00 +28°C° 0 mm 1 m/S 754 mmHg 41%
14:00 +28°C° 0 mm 2 m/S 754 mmHg 41%
15:00 +28°C° 0 mm 2 m/S 754 mmHg 40%
16:00 +28°C° 0 mm 2 m/S 754 mmHg 40%
17:00 +27°C° 0 mm 2 m/S 753 mmHg 48%
18:00 +26°C° 0 mm 1 m/S 753 mmHg 56%
19:00 +25°C° 0 mm 1 m/S 753 mmHg 64%
20:00 +23°C° 0 mm 1 m/S 753 mmHg 66%
21:00 +21°C° 0 mm 1 m/S 753 mmHg 69%
22:00 +17°C° 0 mm 0 m/S 753 mmHg 71%
23:00 +19°C° 0 mm 1 m/S 753 mmHg 72%

übermorgen, 25 Juni, Freitag

Zeit Temperatur Niederschläge Wind Luftdruck Luftfeuchtigkeit
00:00 +18°C° 0 mm 1 m/S 752 mmHg 72%
01:00 +18°C° 0 mm 1 m/S 752 mmHg 73%
02:00 +18°C° 0 mm 1 m/S 752 mmHg 74%
03:00 +18°C° 0 mm 1 m/S 752 mmHg 75%
04:00 +16°C° 0 mm 1 m/S 752 mmHg 76%
05:00 +19°C° 0 mm 1 m/S 752 mmHg 73%
06:00 +20°C° 0 mm 2 m/S 752 mmHg 70%
07:00 +21°C° 0 mm 2 m/S 752 mmHg 67%
08:00 +24°C° 0 mm 2 m/S 752 mmHg 65%
09:00 +26°C° 0 mm 2 m/S 751 mmHg 63%
10:00 +27°C° 0 mm 2 m/S 751 mmHg 61%
11:00 +28°C° 0 mm 2 m/S 751 mmHg 59%
12:00 +29°C° 0 mm 2 m/S 751 mmHg 57%
13:00 +30°C° 0 mm 2 m/S 751 mmHg 55%
14:00 +31°C° 0.2 mm 2 m/S 750 mmHg 55%
15:00 +31°C° 0.2 mm 2 m/S 750 mmHg 55%
16:00 +31°C° 0.2 mm 2 m/S 750 mmHg 55%
17:00 +30°C° 0.3 mm 2 m/S 750 mmHg 63%
18:00 +28°C° 0.3 mm 2 m/S 750 mmHg 72%
19:00 +27°C° 0.3 mm 1 m/S 749 mmHg 80%
20:00 +25°C° 0.9 mm 1 m/S 749 mmHg 83%
21:00 +24°C° 0.9 mm 1 m/S 749 mmHg 86%
22:00 +23°C° 0.9 mm 1 m/S 749 mmHg 89%
23:00 +22°C° 0.2 mm 1 m/S 749 mmHg 90%

26 Juni, Samstag

Zeit Temperatur Niederschläge Wind Luftdruck Luftfeuchtigkeit
00:00 +22°C° 0.2 mm 1 m/S 749 mmHg 91%
01:00 +22°C° 0.2 mm 1 m/S 749 mmHg 92%
02:00 +21°C° 0.1 mm 1 m/S 749 mmHg 93%
03:00 +21°C° 0.1 mm 1 m/S 749 mmHg 93%
04:00 +21°C° 0.1 mm 1 m/S 749 mmHg 94%
05:00 +22°C° 0.3 mm 1 m/S 749 mmHg 93%
06:00 +23°C° 0.3 mm 1 m/S 749 mmHg 92%
07:00 +24°C° 0.3 mm 1 m/S 749 mmHg 91%
08:00 +26°C° 0 mm 1 m/S 749 mmHg 83%
09:00 +27°C° 0 mm 2 m/S 749 mmHg 76%
10:00 +29°C° 0 mm 2 m/S 749 mmHg 69%
11:00 +29°C° 0.8 mm 2 m/S 749 mmHg 66%
12:00 +30°C° 0.8 mm 2 m/S 748 mmHg 64%
13:00 +31°C° 0.8 mm 2 m/S 748 mmHg 62%
14:00 +31°C° 0.1 mm 3 m/S 748 mmHg 58%
15:00 +33°C° 0.1 mm 3 m/S 748 mmHg 55%
16:00 +33°C° 0.1 mm 3 m/S 748 mmHg 52%
17:00 +29°C° 0.6 mm 3 m/S 748 mmHg 64%
18:00 +27°C° 0.6 mm 3 m/S 748 mmHg 76%
19:00 +24°C° 0.6 mm 3 m/S 748 mmHg 88%
20:00 +23°C° 0.1 mm 2 m/S 748 mmHg 88%
21:00 +23°C° 0.1 mm 1 m/S 748 mmHg 89%
22:00 +22°C° 0.1 mm 1 m/S 749 mmHg 89%
23:00 +22°C° 0 mm 1 m/S 749 mmHg 90%

27 Juni, Sonntag

Zeit Temperatur Niederschläge Wind Luftdruck Luftfeuchtigkeit
00:00 +19°C° 0 mm 0 m/S 749 mmHg 91%
01:00 +19°C° 0 mm 0 m/S 749 mmHg 92%
02:00 +18°C° 0 mm 0 m/S 749 mmHg 93%
03:00 +18°C° 0 mm 0 m/S 749 mmHg 93%
04:00 +18°C° 0 mm 0 m/S 749 mmHg 94%
05:00 +21°C° 0 mm 1 m/S 749 mmHg 91%
06:00 +22°C° 0 mm 1 m/S 749 mmHg 88%
07:00 +23°C° 0 mm 1 m/S 750 mmHg 86%
08:00 +25°C° 0 mm 1 m/S 750 mmHg 76%
09:00 +26°C° 0 mm 2 m/S 750 mmHg 65%
10:00 +27°C° 0 mm 2 m/S 749 mmHg 55%
11:00 +28°C° 0 mm 2 m/S 749 mmHg 52%
12:00 +29°C° 0 mm 2 m/S 749 mmHg 48%
13:00 +30°C° 0 mm 3 m/S 749 mmHg 45%
14:00 +30°C° 0 mm 3 m/S 749 mmHg 45%
15:00 +30°C° 0 mm 3 m/S 749 mmHg 45%
16:00 +30°C° 0 mm 3 m/S 749 mmHg 45%
17:00 +29°C° 0 mm 3 m/S 749 mmHg 52%
18:00 +28°C° 0 mm 2 m/S 749 mmHg 59%
19:00 +27°C° 0 mm 2 m/S 750 mmHg 67%
20:00 +25°C° 0 mm 2 m/S 750 mmHg 70%
21:00 +23°C° 0 mm 2 m/S 750 mmHg 73%
22:00 +20°C° 0 mm 2 m/S 750 mmHg 77%
23:00 +19°C° 0 mm 2 m/S 750 mmHg 79%

28 Juni, Montag

Zeit Temperatur Niederschläge Wind Luftdruck Luftfeuchtigkeit
00:00 +18°C° 0 mm 2 m/S 750 mmHg 80%
01:00 +18°C° 0 mm 2 m/S 750 mmHg 82%
02:00 +18°C° 0 mm 1 m/S 750 mmHg 84%
03:00 +18°C° 0 mm 1 m/S 750 mmHg 85%
04:00 +16°C° 0 mm 1 m/S 751 mmHg 87%
05:00 +19°C° 0 mm 1 m/S 751 mmHg 82%
06:00 +21°C° 0 mm 1 m/S 751 mmHg 76%
07:00 +22°C° 0 mm 1 m/S 751 mmHg 70%
08:00 +24°C° 0 mm 1 m/S 751 mmHg 64%
09:00 +26°C° 0 mm 2 m/S 751 mmHg 58%
10:00 +27°C° 0 mm 2 m/S 751 mmHg 52%
11:00 +28°C° 0 mm 2 m/S 751 mmHg 48%
12:00 +29°C° 0 mm 2 m/S 751 mmHg 44%
13:00 +30°C° 0 mm 2 m/S 750 mmHg 40%
14:00 +30°C° 0 mm 2 m/S 750 mmHg 40%
15:00 +30°C° 0 mm 2 m/S 750 mmHg 41%
16:00 +31°C° 0 mm 3 m/S 750 mmHg 41%
17:00 +29°C° 0 mm 3 m/S 750 mmHg 49%
18:00 +28°C° 0 mm 3 m/S 750 mmHg 57%
19:00 +27°C° 0 mm 3 m/S 750 mmHg 65%
20:00 +26°C° 0 mm 2 m/S 750 mmHg 66%
21:00 +25°C° 0 mm 2 m/S 750 mmHg 67%
22:00 +24°C° 0 mm 2 m/S 750 mmHg 69%
23:00 +23°C° 0 mm 2 m/S 750 mmHg 69%
Mehr zeigen

Wir brauchen deine Erlaubnis

Meteoprog und unser Service Anbieter werden persönliche Daten aufbewahren, so wie Cookies, Geräte Bezeichnung oder ähnliche Technologien von deinem Gerät und Prozess, so wie Persönliche Daten Inhalte und Werbungen, genauso wie social Media und den Verkehr zu analysieren.

  • Aufbewahrung und/oder Zugang zu deiner Geräte Informationen.

    Cookies, Geräte Bezeichnung oder andere Informationen, können aufbewahrt oder Zugang zu deinem Gerät erhalten, für den Grund, der oben angegeben wird.

  • Personalisierte Werbung und Inhalte, Messungen, Einblick in das Publikum und Produkt Entwicklung.

    Werbungen und Inhalte können personalisiert werden, basierend auf ein Profil. Mehr Daten können besser personalisierte Werbungen und Inhalte hinzufügen. Werbung und Inhalte können gezeigt und gemessen werden. Einblicke über das Publikum, welche die Werbung gesehen haben und den Inhalt, können abgeleitet werden. So wie Daten können genutzt werden, um es zu verbessern oder die Benutzer Erfahrung zu verbessern das System und die Software.

Wenn du “Ich stimme zu” klickst, erlaubst du uns, die Cookies zu benutzen die Geräte Bezeichnung, den Web oder ähnliche Technologien zu benutzen. Deine Settings, können in deinem Gerät bei deinem Browser geändert werden.

Für den bestimmten Zweck, berechtigten Interessen beruhen darauf, mehr als auf den Inhalt. Du kannst mehr darüber in unseren Privaten und Cookie Politik lesen.